This is the latest recevied weather packets stored in our database for station/object AI5BL. If no packets are shown the sender has not sent any weather packets the latest 10 day(s).
| Time | Temp. | Humidity | Pressure | Rain* | Wind** | Luminosity | Snow |
|---|---|---|---|---|---|---|---|
| 1778006526 | 26.67° C | 58% | 1014.9 hPa | 0 mm | - | 494 W/m² | - |
| 1778006223 | 26.67° C | 61% | 1015.2 hPa | 0 mm | - | 391 W/m² | - |
| 1778005921 | 27.22° C | 59% | 1015.1 hPa | 0 mm | - | 316 W/m² | - |
| 1778005616 | 27.22° C | 56% | 1015.3 hPa | 0 mm | - | 351 W/m² | - |
| 1778005314 | 27.78° C | 63% | 1015.4 hPa | 0 mm | - | 384 W/m² | - |
| 1778005010 | 27.78° C | 60% | 1015.2 hPa | 0 mm | - | 400 W/m² | - |
| 1778004708 | 27.78° C | 59% | 1015.4 hPa | 0 mm | - | 852 W/m² | - |
| 1778004403 | 27.78° C | 57% | 1015.4 hPa | 0 mm | - | 827 W/m² | - |
| 1778004101 | 28.33° C | 55% | 1015.5 hPa | 0 mm | - | 836 W/m² | - |
| 1778003797 | 27.78° C | 54% | 1015.6 hPa | 0 mm | - | 817 W/m² | - |
| 1778003493 | 27.22° C | 54% | 1015.6 hPa | 0 mm | - | 798 W/m² | - |
| 1778003190 | 27.22° C | 60% | 1015.6 hPa | 0 mm | - | 812 W/m² | - |
| 1778002886 | 27.22° C | 59% | 1015.6 hPa | 0 mm | - | 842 W/m² | - |
| 1778002583 | 27.22° C | 58% | 1015.8 hPa | 0 mm | - | 628 W/m² | - |
| 1778002280 | 26.67° C | 62% | 1015.9 hPa | 0 mm | - | 874 W/m² | - |
| 1778001978 | 26.11° C | 62% | 1015.9 hPa | 0 mm | - | 820 W/m² | - |
| 1778001674 | 26.67° C | 60% | 1016 hPa | 0 mm | - | 903 W/m² | - |
| 1778001369 | 26.67° C | 59% | 1015.8 hPa | 0 mm | - | 593 W/m² | - |
| 1778001066 | 26.11° C | 63% | 1016 hPa | 0 mm | - | 795 W/m² | - |
| 1778000763 | 26.11° C | 61% | 1016 hPa | 0 mm | - | 814 W/m² | - |
| 1778000459 | 26.67° C | 58% | 1016.1 hPa | 0 mm | - | 743 W/m² | - |
| 1778000155 | 26.11° C | 64% | 1015.8 hPa | 0 mm | - | 767 W/m² | - |
| 1777999851 | 26.11° C | 62% | 1016.2 hPa | 0 mm | - | 350 W/m² | - |
| 1777999547 | 26.11° C | 64% | 1016 hPa | 0 mm | - | 772 W/m² | - |
| 1777999245 | 25.56° C | 63% | 1016.1 hPa | 0 mm | - | 770 W/m² | - |
* Rain latest hour (hover to see other rain measurements)
** Current wind speed in m/s (hover to see current wind gust speed)